IU7LMH-13 Weather Reports


Display with metric or nautical units.
time (UTC)temp
F
wind
direction
speed
MPH
gust
MPH
rain 1hr
in
rain 24hr
in
rain mn
in
humidity
%
barometer
mb
20260504194739 59 315 1.0 2.0 0.00 0.00 0.00 86 1017.8
20260504194139 59 315 0.0 2.0 0.00 0.00 0.00 85 1017.8
20260504193940 59 315 2.0 2.0 0.00 0.00 0.00 85 1017.8
20260504193744 59 315 0.0 0.0 0.00 0.00 0.00 85 1017.9
20260504193542 60 0 0.0 0.0 0.00 0.00 0.00 85 1017.7
20260504193340 60 0 0.0 0.0 0.00 0.00 0.00 84 1017.7
20260504193139 60 0 0.0 0.0 0.00 0.00 0.00 84 1017.8
20260504192939 60 0 0.0 0.0 0.00 0.00 0.00 84 1017.7
20260504192739 60 0 0.0 0.0 0.00 0.00 0.00 84 1017.5
20260504192544 60 0 0.0 0.0 0.00 0.00 0.00 84 1017.8
20260504192338 60 0 0.0 0.0 0.00 0.00 0.00 84 1017.7
20260504191940 60 0 0.0 0.0 0.00 0.00 0.00 84 1017.6
20260504191741 60 0 0.0 0.0 0.00 0.00 0.00 84 1017.7
20260504191545 60 0 0.0 0.0 0.00 0.00 0.00 83 1017.8
20260504191339 60 0 0.0 0.0 0.00 0.00 0.00 83 1017.5
20260504191142 61 0 0.0 0.0 0.00 0.00 0.00 83 1017.6
20260504190939 61 338 0.0 0.0 0.00 0.00 0.00 83 1017.6
20260504190744 61 0 0.0 0.0 0.00 0.00 0.00 83 1017.6
20260504190541 61 338 0.0 0.0 0.00 0.00 0.00 83 1017.5
20260504190336 61 338 0.0 0.0 0.00 0.00 0.00 83 1017.5
20260504190137 61 338 0.0 0.0 0.00 0.00 0.00 82 1017.6
20260504185937 61 0 0.0 0.0 0.00 0.00 0.00 82 1017.6
20260504185739 62 0 0.0 0.0 0.00 0.00 0.00 82 1017.4
20260504185542 62 0 0.0 0.0 0.00 0.00 0.00 82 1017.3
20260504185338 62 22 0.0 0.0 0.00 0.00 0.00 82 1017.4
20260504184939 62 22 1.0 2.0 0.00 0.00 0.00 81 1017.2
20260504184739 62 22 1.0 2.0 0.00 0.00 0.00 81 1017.4
20260504184542 62 0 0.0 0.0 0.00 0.00 0.00 81 1017.4
20260504184337 62 0 0.0 0.0 0.00 0.00 0.00 80 1017.3
20260504184141 62 0 0.0 0.0 0.00 0.00 0.00 80 1017.3
20260504183940 63 0 0.0 0.0 0.00 0.00 0.00 80 1017.4
20260504183738 63 0 0.0 2.0 0.00 0.00 0.00 80 1017.4
20260504183542 63 45 0.0 0.0 0.00 0.00 0.00 79 1017.3
20260504183339 63 22 1.0 2.0 0.00 0.00 0.00 79 1017.4
20260504183140 63 22 2.0 4.0 0.00 0.00 0.00 78 1017.3
20260504182938 63 45 2.0 2.0 0.00 0.00 0.00 78 1017.2
20260504182738 63 68 2.0 2.0 0.00 0.00 0.00 78 1017.1
20260504182546 63 22 1.0 2.0 0.00 0.00 0.00 77 1016.9
20260504182336 63 0 0.0 2.0 0.00 0.00 0.00 77 1017.1
20260504182137 63 0 0.0 0.0 0.00 0.00 0.00 77 1017.0
20260504181938 63 338 0.0 0.0 0.00 0.00 0.00 77 1017.0
20260504181737 63 270 0.0 0.0 0.00 0.00 0.00 76 1017.1
20260504181543 63 248 0.0 0.0 0.00 0.00 0.00 75 1016.8
20260504181339 63 248 0.0 0.0 0.00 0.00 0.00 75 1016.9
20260504181137 64 248 0.0 0.0 0.00 0.00 0.00 75 1017.0
20260504180737 64 248 0.0 0.0 0.00 0.00 0.00 74 1017.2
20260504180542 65 248 0.0 0.0 0.00 0.00 0.00 73 1017.0
20260504180338 65 248 0.0 0.0 0.00 0.00 0.00 73 1017.0
20260504180137 65 248 0.0 0.0 0.00 0.00 0.00 73 1017.0
20260504175938 65 225 0.0 0.0 0.00 0.00 0.00 73 1016.9
20260504175737 65 225 0.0 0.0 0.00 0.00 0.00 73 1017.0
20260504175544 65 225 0.0 2.0 0.00 0.00 0.00 73 1017.1
20260504175337 65 225 0.0 2.0 0.00 0.00 0.00 73 1017.0
20260504175139 65 225 0.0 2.0 0.00 0.00 0.00 73 1016.9
20260504174938 65 202 1.0 2.0 0.00 0.00 0.00 73 1016.9
20260504174737 65 180 2.0 2.0 0.00 0.00 0.00 72 1016.9
20260504174545 65 180 1.0 2.0 0.00 0.00 0.00 72 1016.6
20260504174338 65 135 1.0 2.0 0.00 0.00 0.00 72 1016.7
20260504174138 65 180 2.0 4.0 0.00 0.00 0.00 72 1016.8
20260504173940 65 158 2.0 2.0 0.00 0.00 0.00 72 1016.8
20260504173736 65 135 3.0 4.0 0.00 0.00 0.00 72 1016.6
20260504173337 65 158 2.0 4.0 0.00 0.00 0.00 72 1016.7
20260504173138 65 158 2.0 2.0 0.00 0.00 0.00 71 1016.7
20260504172937 66 158 2.0 2.0 0.00 0.00 0.00 71 1016.6
20260504172738 66 158 1.0 2.0 0.00 0.00 0.00 71 1016.9
20260504172546 66 158 1.0 2.0 0.00 0.00 0.00 71 1016.9
20260504172137 66 158 2.0 2.0 0.00 0.00 0.00 70 1016.9
20260504171939 66 180 2.0 2.0 0.00 0.00 0.00 69 1016.7
20260504171738 66 158 1.0 2.0 0.00 0.00 0.00 68 1016.7
20260504171545 66 112 2.0 4.0 0.00 0.00 0.00 68 1016.7
20260504171138 67 135 3.0 6.0 0.00 0.00 0.00 67 1016.6
20260504170940 67 135 2.0 4.0 0.00 0.00 0.00 66 1016.6
20260504170738 67 158 2.0 2.0 0.00 0.00 0.00 65 1016.7
20260504170337 67 158 4.0 6.0 0.00 0.00 0.00 63 1016.6
20260504170138 67 180 4.0 4.0 0.00 0.00 0.00 64 1016.6
20260504160337 70 180 4.0 8.0 0.00 0.00 0.00 54 1016.5
20260504160138 70 158 4.0 7.0 0.00 0.00 0.00 53 1016.4
20260504151138 73 180 7.0 9.0 0.00 0.00 0.00 52 1016.5
20260504150939 74 225 5.0 8.0 0.00 0.00 0.00 52 1016.2
20260504150738 74 202 3.0 7.0 0.00 0.00 0.00 51 1016.6
20260504150542 74 158 4.0 6.0 0.00 0.00 0.00 51 1016.6
20260504150139 73 180 6.0 9.0 0.00 0.00 0.00 51 1016.4
20260504141137 74 158 6.0 9.0 0.00 0.00 0.00 50 1016.8
20260504140938 74 112 4.0 7.0 0.00 0.00 0.00 50 1017.0
20260504140738 74 158 4.0 7.0 0.00 0.00 0.00 51 1016.6
20260504140542 74 180 5.0 7.0 0.00 0.00 0.00 52 1016.8
20260504140337 73 180 4.0 7.0 0.00 0.00 0.00 52 1017.0
20260504140139 73 180 4.0 7.0 0.00 0.00 0.00 52 1017.0
20260504130738 72 158 7.0 9.0 0.00 0.00 0.00 54 1017.4
20260504130542 72 135 4.0 7.0 0.00 0.00 0.00 53 1017.4
20260504130337 72 135 4.0 6.0 0.00 0.00 0.00 54 1017.3
20260504120137 75 135 4.0 7.0 0.00 0.00 0.00 46 1017.8
20260504110543 75 158 6.0 8.0 0.00 0.00 0.00 48 1018.1
20260504110338 75 180 4.0 7.0 0.00 0.00 0.00 45 1018.1
20260504110138 74 158 4.0 7.0 0.00 0.00 0.00 45 1018.0
20260504100542 74 90 6.0 8.0 0.00 0.00 0.00 47 1018.4
20260504100339 74 112 8.0 11.0 0.00 0.00 0.00 46 1018.4
20260504100138 75 112 6.0 11.0 0.00 0.00 0.00 48 1018.4
20260504090138 72 112 4.0 6.0 0.00 0.00 0.00 54 1018.8
20260504081939 74 135 3.0 4.0 0.00 0.00 0.00 47 1018.9
20260504081739 74 112 2.0 2.0 0.00 0.00 0.00 45 1018.9
20260504081138 75 90 2.0 4.0 0.00 0.00 0.00 44 1018.8
20260504080739 76 45 2.0 2.0 0.00 0.00 0.00 43 1018.7
20260504080543 76 292 1.0 2.0 0.00 0.00 0.00 43 1018.9
20260504080339 76 112 2.0 2.0 0.00 0.00 0.00 40 1018.8
20260504080138 75 135 2.0 2.0 0.00 0.00 0.00 41 1018.7
20260504070136 67 225 2.0 2.0 0.00 0.00 0.00 55 1018.6
20260504050542 55 225 1.0 2.0 0.00 0.00 0.00 77 1018.6
20260504050337 55 248 1.0 2.0 0.00 0.00 0.00 77 1018.9
20260504050137 55 225 0.0 0.0 0.00 0.00 0.00 77 1018.8
20260504045937 54 270 0.0 0.0 0.00 0.00 0.00 77 1018.5
20260504045738 54 270 0.0 0.0 0.00 0.00 0.00 77 1018.5
20260504045545 54 270 0.0 0.0 0.00 0.00 0.00 77 1018.5
20260504045336 54 292 0.0 0.0 0.00 0.00 0.00 77 1018.7
20260504045138 54 315 0.0 0.0 0.00 0.00 0.00 77 1018.6
20260504044937 54 315 0.0 0.0 0.00 0.00 0.00 77 1018.4
20260504044737 54 338 0.0 0.0 0.00 0.00 0.00 78 1018.3
20260504044544 54 338 0.0 0.0 0.00 0.00 0.00 78 1018.5
20260504044137 53 315 0.0 0.0 0.00 0.00 0.00 80 1018.5
20260504043937 53 315 0.0 0.0 0.00 0.00 0.00 80 1018.6
20260504043736 52 292 0.0 0.0 0.00 0.00 0.00 80 1018.5
20260504043542 52 292 0.0 0.0 0.00 0.00 0.00 80 1018.4
20260504043339 52 292 0.0 0.0 0.00 0.00 0.00 80 1018.4
20260504043139 52 292 0.0 0.0 0.00 0.00 0.00 80 1018.5
20260504042937 52 292 0.0 0.0 0.00 0.00 0.00 80 1018.3
20260504042737 52 292 0.0 0.0 0.00 0.00 0.00 80 1018.4
20260504042552 52 292 0.0 0.0 0.00 0.00 0.00 81 1018.4
20260504042338 51 292 0.0 0.0 0.00 0.00 0.00 81 1018.3
20260504042138 51 292 0.0 0.0 0.00 0.00 0.00 80 1018.2
20260504041937 51 292 0.0 0.0 0.00 0.00 0.00 80 1018.2
20260504041738 51 292 0.0 0.0 0.00 0.00 0.00 80 1018.3
20260504041137 51 292 0.0 0.0 0.00 0.00 0.00 80 1018.1
20260504040937 51 315 0.0 0.0 0.00 0.00 0.00 80 1018.1
20260504040737 51 315 0.0 0.0 0.00 0.00 0.00 80 1017.9
20260504040337 51 338 0.0 0.0 0.00 0.00 0.00 80 1018.3
20260504040138 51 338 0.0 0.0 0.00 0.00 0.00 80 1017.9
20260504035938 51 338 0.0 0.0 0.00 0.00 0.00 80 1018.1
20260504035739 51 338 0.0 0.0 0.00 0.00 0.00 80 1018.0
20260504035544 51 338 0.0 2.0 0.00 0.00 0.00 80 1018.1
20260504035137 51 315 0.0 0.0 0.00 0.00 0.00 80 1018.0
20260504034737 51 315 1.0 2.0 0.00 0.00 0.00 80 1018.0
20260504034543 51 315 1.0 2.0 0.00 0.00 0.00 80 1018.0
20260504034337 51 315 0.0 2.0 0.00 0.00 0.00 79 1017.8
20260504034137 51 315 0.0 2.0 0.00 0.00 0.00 79 1017.9
20260504033938 51 315 2.0 2.0 0.00 0.00 0.00 79 1018.0
20260504033738 51 315 2.0 2.0 0.00 0.00 0.00 80 1018.0
20260504033541 51 315 2.0 2.0 0.00 0.00 0.00 80 1017.9
20260504033337 51 315 2.0 2.0 0.00 0.00 0.00 80 1017.8
20260504033138 51 315 1.0 2.0 0.00 0.00 0.00 81 1018.1
20260504032937 51 315 1.0 2.0 0.00 0.00 0.00 81 1018.0
20260504032737 51 315 2.0 2.0 0.00 0.00 0.00 81 1017.8
20260504032545 51 315 2.0 4.0 0.00 0.00 0.00 81 1017.8
20260504032339 51 315 1.0 2.0 0.00 0.00 0.00 82 1017.8
20260504032138 51 315 2.0 2.0 0.00 0.00 0.00 82 1017.7
20260504031937 50 315 1.0 2.0 0.00 0.00 0.00 82 1017.8
20260504031544 50 292 1.0 2.0 0.00 0.00 0.00 82 1017.9
20260504031338 50 292 1.0 2.0 0.00 0.00 0.00 82 1018.0
20260504031138 50 315 0.0 2.0 0.00 0.00 0.00 82 1018.0
20260504030938 51 315 1.0 2.0 0.00 0.00 0.00 82 1018.1
20260504030737 50 315 2.0 2.0 0.00 0.00 0.00 83 1018.0
20260504030540 50 315 1.0 2.0 0.00 0.00 0.00 83 1018.0
20260504030337 50 315 2.0 2.0 0.00 0.00 0.00 83 1018.1
20260504030138 50 315 2.0 2.0 0.00 0.00 0.00 84 1018.1
20260504025937 50 315 2.0 4.0 0.00 0.00 0.00 84 1017.9
20260504025739 50 315 2.0 2.0 0.00 0.00 0.00 84 1018.1
20260504025544 49 315 2.0 4.0 0.00 0.00 0.00 84 1018.1
20260504025139 49 315 1.0 2.0 0.00 0.00 0.00 84 1018.2
20260504024939 49 315 2.0 2.0 0.00 0.00 0.00 84 1018.2
20260504024738 49 315 1.0 2.0 0.00 0.00 0.00 84 1018.1
20260504024545 49 315 1.0 2.0 0.00 0.00 0.00 84 1018.2
20260504024336 49 22 0.0 2.0 0.00 0.00 0.00 84 1018.3
20260504024138 49 338 0.0 0.0 0.00 0.00 0.00 84 1018.0
20260504023938 49 338 1.0 2.0 0.00 0.00 0.00 84 1018.2
20260504023544 49 315 0.0 0.0 0.00 0.00 0.00 84 1018.3
20260504023338 49 338 0.0 0.0 0.00 0.00 0.00 84 1018.3
20260504023138 49 338 0.0 0.0 0.00 0.00 0.00 84 1018.2
20260504022937 49 338 0.0 0.0 0.00 0.00 0.00 84 1018.1
20260504022738 49 338 0.0 2.0 0.00 0.00 0.00 84 1018.3
20260504022337 49 338 0.0 0.0 0.00 0.00 0.00 83 1018.3
20260504022138 49 338 0.0 0.0 0.00 0.00 0.00 83 1018.2
20260504021937 49 338 0.0 0.0 0.00 0.00 0.00 83 1018.0
20260504021138 49 0 1.0 2.0 0.00 0.00 0.00 83 1018.3
20260504020937 49 338 1.0 2.0 0.00 0.00 0.00 82 1018.3
20260504020738 49 0 1.0 2.0 0.00 0.00 0.00 82 1018.0
20260504020338 49 338 1.0 2.0 0.00 0.00 0.00 82 1018.3
20260504020137 49 315 1.0 2.0 0.00 0.00 0.00 81 1018.1
20260504015938 50 338 1.0 2.0 0.00 0.00 0.00 81 1018.2
20260504015738 50 0 1.0 2.0 0.00 0.00 0.00 81 1018.3
20260504015543 50 338 1.0 2.0 0.00 0.00 0.00 81 1018.2
20260504015337 51 338 1.0 2.0 0.00 0.00 0.00 80 1017.9
20260504015136 51 0 0.0 2.0 0.00 0.00 0.00 80 1018.0
20260504014737 52 22 1.0 2.0 0.00 0.00 0.00 79 1018.0
20260504014544 52 0 1.0 2.0 0.00 0.00 0.00 79 1018.0
20260504014338 52 0 0.0 2.0 0.00 0.00 0.00 79 1018.1
20260504014137 52 0 0.0 2.0 0.00 0.00 0.00 79 1018.1
20260504013737 52 0 1.0 2.0 0.00 0.00 0.00 79 1018.0
20260504013541 53 0 0.0 0.0 0.00 0.00 0.00 79 1017.9
20260504013337 53 0 1.0 2.0 0.00 0.00 0.00 79 1017.9
20260504013136 52 22 1.0 2.0 0.00 0.00 0.00 79 1017.9
20260504012938 52 22 1.0 2.0 0.00 0.00 0.00 79 1018.1
20260504012543 52 22 0.0 0.0 0.00 0.00 0.00 79 1017.9
20260504012337 52 22 0.0 2.0 0.00 0.00 0.00 79 1017.9
20260504012136 52 338 0.0 0.0 0.00 0.00 0.00 79 1017.9
20260504011938 52 338 0.0 0.0 0.00 0.00 0.00 79 1018.0
20260504011737 52 0 0.0 2.0 0.00 0.00 0.00 78 1018.0
20260504011544 52 315 0.0 0.0 0.00 0.00 0.00 78 1017.9
20260504011337 53 315 0.0 0.0 0.00 0.00 0.00 78 1017.9
20260504010938 53 315 0.0 0.0 0.00 0.00 0.00 78 1017.8
20260504010738 53 315 0.0 0.0 0.00 0.00 0.00 77 1017.7
20260504010540 53 315 0.0 0.0 0.00 0.00 0.00 77 1017.9
20260504010337 53 0 0.0 0.0 0.00 0.00 0.00 77 1018.1
20260504010137 53 0 0.0 0.0 0.00 0.00 0.00 77 1018.0
20260504005938 53 0 0.0 0.0 0.00 0.00 0.00 77 1017.9
20260504005738 53 0 1.0 2.0 0.00 0.00 0.00 77 1017.9
20260504005542 54 315 0.0 0.0 0.00 0.00 0.00 77 1018.1
20260504005338 54 315 0.0 0.0 0.00 0.00 0.00 77 1017.9
20260504005136 54 315 0.0 0.0 0.00 0.00 0.00 77 1017.9
20260504004938 54 315 0.0 0.0 0.00 0.00 0.00 77 1018.0
20260504004737 54 315 0.0 0.0 0.00 0.00 0.00 76 1018.0
20260504004545 54 315 0.0 0.0 0.00 0.00 0.00 76 1018.1
20260504004337 54 315 0.0 0.0 0.00 0.00 0.00 75 1017.9
20260504004137 54 315 0.0 0.0 0.00 0.00 0.00 74 1018.1
20260504003938 55 315 0.0 0.0 0.00 0.00 0.00 73 1017.9
20260504003737 55 315 0.0 0.0 0.00 0.00 0.00 73 1017.9
20260504003542 55 315 0.0 0.0 0.00 0.00 0.00 73 1017.9
20260504003136 55 315 0.0 0.0 0.00 0.00 0.00 73 1017.9
20260504002937 55 315 0.0 0.0 0.00 0.00 0.00 73 1017.9
20260504002738 56 292 0.0 2.0 0.00 0.00 0.00 73 1018.0
20260504002543 56 315 0.0 2.0 0.00 0.00 0.00 73 1018.0
20260504002337 56 315 1.0 2.0 0.00 0.00 0.00 73 1017.9
20260504002138 56 315 2.0 4.0 0.00 0.00 0.00 73 1017.9
20260504001938 56 315 1.0 2.0 0.00 0.00 0.00 73 1017.8
20260504001738 55 292 1.0 2.0 0.00 0.00 0.00 73 1018.0
20260504001543 55 270 2.0 2.0 0.00 0.00 0.00 73 1018.0
20260504001336 55 292 2.0 4.0 0.00 0.00 0.00 73 1018.1
20260504001137 56 315 1.0 2.0 0.00 0.00 0.00 72 1018.0
20260504000937 56 292 1.0 2.0 0.00 0.00 0.00 72 1018.0
20260504000737 56 292 3.0 4.0 0.00 0.00 0.00 72 1018.1
20260504000540 56 292 3.0 4.0 0.00 0.00 0.00 72 1018.0
20260504000336 56 292 3.0 4.0 0.00 0.00 0.00 72 1018.1
20260504000137 56 292 3.0 4.0 0.00 0.00 0.00 72 1018.1
20260503235936 56 292 2.0 2.0 0.00 0.00 0.00 71 1018.1
20260503235736 56 315 0.0 2.0 0.00 0.00 0.00 71 1018.0
20260503235543 56 292 0.0 0.0 0.00 0.00 0.00 70 1018.1
20260503235336 57 292 0.0 2.0 0.00 0.00 0.00 70 1018.1
20260503235137 57 292 0.0 2.0 0.00 0.00 0.00 70 1018.2
20260503234937 57 292 0.0 2.0 0.00 0.00 0.00 69 1018.1
20260503234737 57 292 2.0 2.0 0.00 0.00 0.00 69 1018.1
20260503234543 57 315 4.0 6.0 0.00 0.00 0.00 69 1018.1
20260503234337 57 292 3.0 4.0 0.00 0.00 0.00 70 1018.1
20260503233736 56 292 4.0 6.0 0.00 0.00 0.00 72 1018.0
20260503233540 56 292 4.0 4.0 0.00 0.00 0.00 72 1018.0
20260503233337 56 292 3.0 4.0 0.00 0.00 0.00 72 1018.1
20260503233136 56 292 4.0 6.0 0.00 0.00 0.00 72 1018.1
20260503232936 56 292 3.0 4.0 0.00 0.00 0.00 72 1018.1
20260503232736 56 292 3.0 4.0 0.00 0.00 0.00 72 1018.1
20260503232542 56 292 2.0 4.0 0.00 0.00 0.00 72 1018.2
20260503232336 56 270 3.0 4.0 0.00 0.00 0.00 72 1018.1
20260503232136 56 270 4.0 4.0 0.00 0.00 0.00 71 1017.9
20260503231938 56 270 4.0 6.0 0.00 0.00 0.00 71 1018.0
20260503231543 56 270 6.0 8.0 0.00 0.00 0.00 71 1018.1
20260503231335 56 270 5.0 8.0 0.00 0.00 0.00 70 1018.0
20260503231136 57 292 5.0 8.0 0.00 0.00 0.00 70 1018.1
20260503230936 57 292 5.0 8.0 0.00 0.00 0.00 70 1018.2
20260503230738 57 292 6.0 7.0 0.00 0.00 0.00 69 1018.1
20260503230540 57 292 4.0 7.0 0.00 0.00 0.00 70 1018.0
20260503230337 57 292 3.0 4.0 0.00 0.00 0.00 70 1018.0
20260503230136 57 292 4.0 6.0 0.00 0.00 0.00 69 1018.0
20260503225937 57 270 4.0 6.0 0.00 0.00 0.00 69 1018.1
20260503225737 58 270 4.0 6.0 0.00 0.00 0.00 68 1018.3
20260503225544 58 292 5.0 6.0 0.00 0.00 0.00 68 1018.1
20260503225335 58 292 4.0 6.0 0.00 0.00 0.00 68 1018.0
20260503224936 58 270 4.0 4.0 0.00 0.00 0.00 67 1018.2
20260503224737 58 270 4.0 6.0 0.00 0.00 0.00 67 1018.0
20260503224543 58 292 4.0 7.0 0.00 0.00 0.00 67 1018.1
20260503224136 58 270 4.0 6.0 0.00 0.00 0.00 67 1018.2
20260503223937 58 248 4.0 6.0 0.00 0.00 0.00 67 1018.3
20260503223736 58 270 4.0 7.0 0.00 0.00 0.00 67 1018.0
20260503223335 58 292 4.0 7.0 0.00 0.00 0.00 67 1018.2
20260503223138 58 270 4.0 6.0 0.00 0.00 0.00 68 1018.1
20260503222737 58 270 4.0 6.0 0.00 0.00 0.00 68 1018.1
20260503222542 58 292 4.0 6.0 0.00 0.00 0.00 68 1018.0
20260503222336 58 270 4.0 6.0 0.00 0.00 0.00 68 1018.2
20260503222136 58 270 3.0 6.0 0.00 0.00 0.00 68 1018.1
20260503221936 58 292 4.0 6.0 0.00 0.00 0.00 68 1018.1
20260503221543 58 270 4.0 7.0 0.00 0.00 0.00 68 1018.0
20260503221341 58 292 4.0 6.0 0.00 0.00 0.00 68 1018.0
20260503221138 58 292 3.0 4.0 0.00 0.00 0.00 67 1018.0
20260503220939 58 292 4.0 6.0 0.00 0.00 0.00 67 1018.0
20260503220740 59 292 4.0 7.0 0.00 0.00 0.00 66 1017.9
20260503220540 59 270 4.0 7.0 0.00 0.00 0.00 66 1017.9
20260503220144 59 270 5.0 7.0 0.00 0.00 0.00 65 1017.9
20260503215937 60 270 4.0 6.0 0.00 0.00 0.00 64 1018.0
20260503215736 60 248 5.0 7.0 0.00 0.00 0.00 64 1018.0
20260503215544 60 270 4.0 7.0 0.00 0.00 0.00 64 1017.9
20260503215337 60 292 4.0 6.0 0.00 0.00 0.00 64 1017.9
20260503215137 60 248 4.0 8.0 0.00 0.00 0.00 64 1017.9
20260503214938 60 315 6.0 8.0 0.00 0.00 0.00 64 1018.0
20260503214738 60 270 5.0 7.0 0.00 0.00 0.00 64 1017.9
20260503214544 60 292 4.0 7.0 0.00 0.00 0.00 64 1017.8
20260503214137 59 292 5.0 7.0 0.00 0.00 0.00 64 1017.8
20260503213938 59 292 4.0 8.0 0.00 0.00 0.00 64 1017.9
20260503213736 60 292 4.0 7.0 0.00 0.00 0.00 64 1017.9
20260503213541 60 270 4.0 6.0 0.00 0.00 0.00 64 1017.9
20260503213337 60 270 4.0 6.0 0.00 0.00 0.00 64 1018.0
20260503213138 60 292 4.0 6.0 0.00 0.00 0.00 63 1018.0
20260503212937 60 270 4.0 6.0 0.00 0.00 0.00 63 1018.0
20260503212736 61 270 4.0 6.0 0.00 0.00 0.00 63 1018.0
20260503212543 61 270 4.0 6.0 0.00 0.00 0.00 62 1018.0
20260503212337 61 270 4.0 6.0 0.00 0.00 0.00 62 1017.7
20260503212137 61 270 4.0 6.0 0.00 0.00 0.00 62 1017.9
20260503211937 62 270 4.0 6.0 0.00 0.00 0.00 61 1018.0
20260503211738 62 270 5.0 9.0 0.00 0.00 0.00 61 1017.9
20260503211543 62 270 5.0 8.0 0.00 0.00 0.00 61 1017.7
20260503211337 62 292 8.0 11.0 0.00 0.00 0.00 61 1017.9
20260503211137 62 292 6.0 8.0 0.00 0.00 0.00 61 1017.8
20260503210938 61 270 6.0 9.0 0.00 0.00 0.00 61 1017.9
20260503210738 61 270 6.0 8.0 0.00 0.00 0.00 61 1017.8
20260503210545 61 292 4.0 8.0 0.00 0.00 0.00 62 1017.9
20260503210138 61 270 5.0 8.0 0.00 0.00 0.00 62 1017.9
20260503205938 61 270 5.0 8.0 0.00 0.00 0.00 62 1017.8
20260503205736 61 270 4.0 6.0 0.00 0.00 0.00 62 1017.8
20260503205543 61 270 4.0 8.0 0.00 0.00 0.00 62 1017.8
20260503205338 61 270 4.0 6.0 0.00 0.00 0.00 62 1017.9
20260503205137 61 270 6.0 9.0 0.00 0.00 0.00 62 1017.8
20260503204938 60 270 6.0 9.0 0.00 0.00 0.00 63 1017.7
20260503204738 60 248 5.0 8.0 0.00 0.00 0.00 65 1017.9
20260503204544 60 270 4.0 9.0 0.00 0.00 0.00 65 1017.8
20260503204338 59 248 4.0 6.0 0.00 0.00 0.00 66 1017.7
20260503204137 58 248 4.0 8.0 0.00 0.00 0.00 67 1017.8
20260503203937 58 270 3.0 4.0 0.00 0.00 0.00 69 1017.8
20260503203737 57 270 3.0 4.0 0.00 0.00 0.00 69 1017.9
20260503203541 57 270 3.0 4.0 0.00 0.00 0.00 70 1017.8
20260503203337 57 270 2.0 4.0 0.00 0.00 0.00 71 1017.7
20260503203137 56 248 2.0 4.0 0.00 0.00 0.00 72 1017.8
20260503202938 56 270 2.0 4.0 0.00 0.00 0.00 73 1017.8
20260503202543 56 270 2.0 2.0 0.00 0.00 0.00 75 1017.8
20260503202338 56 292 2.0 2.0 0.00 0.00 0.00 75 1017.9
20260503202138 56 270 2.0 4.0 0.00 0.00 0.00 76 1017.8
20260503201937 56 270 2.0 2.0 0.00 0.00 0.00 76 1017.9
20260503201738 56 292 2.0 2.0 0.00 0.00 0.00 76 1017.9
20260503201544 56 270 2.0 4.0 0.00 0.00 0.00 76 1017.8
20260503201336 56 270 2.0 2.0 0.00 0.00 0.00 76 1017.9
20260503201137 57 270 2.0 2.0 0.00 0.00 0.00 75 1018.0
20260503200940 57 270 2.0 4.0 0.00 0.00 0.00 75 1018.2
20260503200539 58 270 2.0 4.0 0.00 0.00 0.00 75 1017.9
20260503200337 58 270 2.0 4.0 0.00 0.00 0.00 75 1017.9
20260503200137 58 270 2.0 2.0 0.00 0.00 0.00 75 1017.7
20260503195937 58 270 2.0 2.0 0.00 0.00 0.00 74 1017.8
20260503195738 59 248 2.0 2.0 0.00 0.00 0.00 74 1017.9
20260503195545 59 270 2.0 2.0 0.00 0.00 0.00 74 1017.9
20260503195337 59 270 2.0 2.0 0.00 0.00 0.00 74 1017.9
20260503195137 59 270 2.0 2.0 0.00 0.00 0.00 73 1017.8
20260503194938 59 292 1.0 2.0 0.00 0.00 0.00 73 1017.9